GW2953 Weather Reports


Display with metric or nautical units.
time (UTC)temp
F
wind
direction
speed
MPH
gust
MPH
rain 1hr
in
rain 24hr
in
rain mn
in
humidity
%
barometer
mb
20260509194336 83 132 3.0 4.0 0.00 0.00 0.00 31 1014.7
20260509193832 84 77 3.0 9.0 0.00 0.00 0.00 35 1014.7
20260509193327 84 70 1.0 6.0 0.00 0.00 0.00 36 1014.5
20260509192823 84 124 5.0 7.0 0.00 0.00 0.00 30 1014.5
20260509192319 84 111 2.0 5.0 0.00 0.00 0.00 38 1014.8
20260509191815 84 122 0.0 4.0 0.00 0.00 0.00 32 1014.7
20260509191311 83 161 2.0 7.0 0.00 0.00 0.00 32 1014.8
20260509190806 83 113 0.0 4.0 0.00 0.00 0.00 31 1015.0
20260509190304 82 146 3.0 7.0 0.00 0.00 0.00 34 1014.9
20260509185801 82 87 4.0 6.0 0.00 0.00 0.00 33 1014.9
20260509185257 82 135 4.0 7.0 0.00 0.00 0.00 33 1014.9
20260509184755 83 109 1.0 5.0 0.00 0.00 0.00 33 1015.0
20260509184252 82 50 1.0 4.0 0.00 0.00 0.00 31 1014.8
20260509183749 81 66 3.0 6.0 0.00 0.00 0.00 38 1014.9
20260509183244 82 64 1.0 4.0 0.00 0.00 0.00 33 1015.1
20260509182740 83 181 2.0 5.0 0.00 0.00 0.00 31 1014.9
20260509182238 82 179 0.0 4.0 0.00 0.00 0.00 32 1015.2
20260509181734 81 113 2.0 5.0 0.00 0.00 0.00 38 1015.1
20260509181232 81 41 3.0 4.0 0.00 0.00 0.00 36 1015.2
20260509180729 81 255 2.0 3.0 0.00 0.00 0.00 39 1015.3
20260509180225 80 237 0.0 4.0 0.00 0.00 0.00 35 1015.3
20260509175721 80 195 2.0 3.0 0.00 0.00 0.00 33 1015.4
20260509175218 79 124 1.0 4.0 0.00 0.00 0.00 39 1015.3
20260509174714 80 119 2.0 4.0 0.00 0.00 0.00 49 1015.4
20260509174209 80 79 3.0 4.0 0.00 0.00 0.00 43 1015.4
20260509173706 80 75 2.0 3.0 0.00 0.00 0.00 41 1015.3
20260509173201 81 33 2.0 3.0 0.00 0.00 0.00 42 1015.5
20260509172658 79 89 0.0 3.0 0.00 0.00 0.00 41 1015.4
20260509172154 77 238 0.0 2.0 0.00 0.00 0.00 46 1015.4
20260509171650 78 40 2.0 3.0 0.00 0.00 0.00 46 1015.3
20260509171146 78 89 0.0 3.0 0.00 0.00 0.00 50 1015.5
20260509170643 75 202 1.0 4.0 0.00 0.00 0.00 49 1015.4
20260509170139 75 206 3.0 4.0 0.00 0.00 0.00 51 1015.6
20260509165637 74 120 2.0 3.0 0.00 0.00 0.00 58 1015.6
20260509165133 73 212 0.0 2.0 0.00 0.00 0.00 52 1015.6
20260509164630 73 180 1.0 3.0 0.00 0.00 0.00 51 1015.6
20260509164125 72 352 0.0 5.0 0.00 0.00 0.00 54 1015.7
20260509163623 72 172 3.0 3.0 0.00 0.00 0.00 54 1015.8
20260509163118 73 255 0.0 2.0 0.00 0.00 0.00 52 1015.8
20260509162616 72 187 0.0 3.0 0.00 0.00 0.00 51 1015.9
20260509162112 71 74 3.0 3.0 0.00 0.00 0.00 56 1015.7
20260509161608 69 243 0.0 3.0 0.00 0.00 0.00 57 1015.8
20260509161109 68 100 3.0 5.0 0.00 0.00 0.00 62 1016.0
20260509160605 67 205 1.0 2.0 0.00 0.00 0.00 62 1016.1
20260509160100 68 112 3.0 5.0 0.00 0.00 0.00 62 1016.0
20260509155557 65 127 2.0 3.0 0.00 0.00 0.00 65 1016.1
20260509155053 64 187 1.0 2.0 0.00 0.00 0.00 65 1016.1
20260509154549 63 193 0.0 2.0 0.00 0.00 0.00 65 1016.2
20260509154047 63 224 0.0 2.0 0.00 0.00 0.00 66 1016.4
20260509153543 63 104 1.0 3.0 0.00 0.00 0.00 67 1016.3
20260509153040 62 84 4.0 6.0 0.00 0.00 0.00 70 1016.3
20260509152536 63 91 3.0 4.0 0.00 0.00 0.00 70 1016.5
20260509152034 62 61 0.0 1.0 0.00 0.00 0.00 70 1016.5
20260509151530 62 91 3.0 5.0 0.00 0.00 0.00 70 1016.4
20260509151028 59 322 0.0 1.0 0.00 0.00 0.00 71 1016.5
20260509150525 59 72 3.0 5.0 0.00 0.00 0.00 73 1016.5
20260509150024 58 82 3.0 5.0 0.00 0.00 0.00 75 1016.5
20260509145518 59 69 3.0 4.0 0.00 0.00 0.00 72 1016.7
20260509145013 59 57 1.0 3.0 0.00 0.00 0.00 77 1016.7
20260509144511 57 69 0.0 2.0 0.00 0.00 0.00 80 1016.7
20260509144008 56 60 3.0 5.0 0.00 0.00 0.00 82 1016.7
20260509143505 55 336 1.0 2.0 0.00 0.00 0.00 81 1016.7
20260509143003 55 122 2.0 3.0 0.00 0.00 0.00 81 1016.7
20260509142458 56 49 3.0 5.0 0.00 0.00 0.00 82 1016.8
20260509141954 54 83 0.0 3.0 0.00 0.00 0.00 84 1016.7
20260509141450 53 359 0.0 5.0 0.00 0.00 0.00 86 1016.8
20260509140948 52 131 2.0 4.0 0.00 0.00 0.00 87 1016.7
20260509140443 50 212 2.0 4.0 0.00 0.00 0.00 89 1016.5
20260509135942 50 284 1.0 2.0 0.00 0.00 0.00 89 1016.7
20260509135439 50 86 1.0 3.0 0.00 0.00 0.00 88 1016.8
20260509134936 50 141 2.0 3.0 0.00 0.00 0.00 88 1016.4
20260509134434 50 116 0.0 2.0 0.00 0.00 0.00 89 1016.7
20260509133931 50 189 1.0 2.0 0.00 0.00 0.00 90 1016.3
20260509133427 50 273 1.0 3.0 0.00 0.00 0.00 89 1016.5
20260509132926 50 42 0.0 3.0 0.00 0.00 0.00 89 1016.4
20260509132423 50 108 1.0 2.0 0.00 0.00 0.00 89 1016.5
20260509131920 50 54 1.0 2.0 0.00 0.00 0.00 89 1016.3
20260509131418 50 297 2.0 2.0 0.00 0.00 0.00 89 1016.2
20260509130914 50 345 0.0 2.0 0.00 0.00 0.00 88 1016.4
20260509130409 50 296 1.0 3.0 0.00 0.00 0.00 89 1016.4
20260509125907 50 162 0.0 2.0 0.00 0.00 0.00 89 1016.4
20260509125403 51 125 1.0 3.0 0.00 0.00 0.00 88 1016.4
20260509124859 51 287 0.0 2.0 0.00 0.00 0.00 88 1016.7
20260509124356 51 242 0.0 3.0 0.00 0.00 0.00 88 1016.2
20260509123854 51 45 0.0 3.0 0.00 0.00 0.00 87 1016.4
20260509123351 51 262 1.0 5.0 0.00 0.00 0.00 88 1016.3
20260509122847 51 132 1.0 3.0 0.00 0.00 0.00 88 1016.4
20260509122344 51 63 1.0 3.0 0.00 0.00 0.00 87 1016.3
20260509121841 51 308 1.0 4.0 0.00 0.00 0.00 88 1016.4
20260509121338 51 231 2.0 5.0 0.00 0.00 0.00 88 1016.5
20260509120836 52 310 0.0 4.0 0.00 0.00 0.00 87 1016.5
20260509120333 52 50 0.0 3.0 0.00 0.00 0.00 86 1016.7
20260509115831 52 247 2.0 3.0 0.00 0.00 0.00 86 1016.4
20260509115328 53 306 0.0 3.0 0.00 0.00 0.00 85 1016.4
20260509114826 52 29 0.0 5.0 0.00 0.00 0.00 85 1016.5
20260509114325 52 241 1.0 3.0 0.00 0.00 0.00 87 1016.5
20260509113824 52 50 0.0 2.0 0.00 0.00 0.00 86 1016.4
20260509113320 52 124 1.0 3.0 0.00 0.00 0.00 87 1016.4
20260509112817 52 187 2.0 4.0 0.00 0.00 0.00 88 1016.5
20260509112314 53 65 1.0 2.0 0.00 0.00 0.00 87 1016.7
20260509111811 53 3 0.0 4.0 0.00 0.00 0.00 87 1016.7
20260509111308 52 277 2.0 2.0 0.00 0.00 0.00 87 1016.8
20260509110805 52 246 0.0 3.0 0.00 0.00 0.00 88 1016.8
20260509110301 52 245 1.0 2.0 0.00 0.00 0.00 89 1016.8
20260509105800 53 94 2.0 3.0 0.00 0.00 0.00 88 1016.5
20260509105258 52 7 1.0 3.0 0.00 0.00 0.00 89 1016.8
20260509104754 52 37 0.0 2.0 0.00 0.00 0.00 90 1016.8
20260509104251 52 37 0.0 2.0 0.00 0.00 0.00 90 1016.9
20260509103749 52 261 1.0 2.0 0.00 0.00 0.00 90 1016.8
20260509103246 52 306 0.0 1.0 0.00 0.00 0.00 90 1017.1
20260509102744 53 107 2.0 2.0 0.00 0.00 0.00 88 1016.7
20260509102241 53 263 0.0 3.0 0.00 0.00 0.00 87 1016.8
20260509101737 53 295 2.0 4.0 0.00 0.00 0.00 87 1016.8
20260509101233 53 132 1.0 2.0 0.00 0.00 0.00 88 1016.7
20260509100731 53 347 0.0 3.0 0.00 0.00 0.00 89 1016.8
20260509100228 54 66 3.0 5.0 0.00 0.00 0.00 87 1016.8
20260509095725 54 51 3.0 5.0 0.00 0.00 0.00 86 1016.8
20260509095222 54 25 3.0 4.0 0.00 0.00 0.00 86 1016.8
20260509094719 53 282 2.0 4.0 0.00 0.00 0.00 89 1016.8
20260509094216 53 321 2.0 3.0 0.00 0.00 0.00 88 1016.9
20260509093714 54 129 0.0 2.0 0.00 0.00 0.00 87 1017.0
20260509093211 55 53 2.0 3.0 0.00 0.00 0.00 85 1017.0
20260509092709 54 305 2.0 3.0 0.00 0.00 0.00 88 1017.0
20260509092207 53 309 1.0 2.0 0.00 0.00 0.00 89 1016.9
20260509091705 54 100 0.0 3.0 0.00 0.00 0.00 88 1017.1
20260509091200 54 83 2.0 5.0 0.00 0.00 0.00 88 1017.0
20260509090658 54 302 0.0 3.0 0.00 0.00 0.00 87 1017.1
20260509090155 54 57 1.0 2.0 0.00 0.00 0.00 87 1017.1
20260509085653 54 205 0.0 3.0 0.00 0.00 0.00 87 1017.1
20260509085149 54 0 0.0 2.0 0.00 0.00 0.00 88 1017.2
20260509084646 55 91 1.0 3.0 0.00 0.00 0.00 87 1017.2
20260509084143 55 19 0.0 1.0 0.00 0.00 0.00 86 1017.1
20260509083641 55 280 1.0 2.0 0.00 0.00 0.00 87 1017.2
20260509083137 55 294 2.0 2.0 0.00 0.00 0.00 87 1017.2
20260509082634 55 38 2.0 3.0 0.00 0.00 0.00 87 1017.2
20260509082131 56 66 2.0 3.0 0.00 0.00 0.00 85 1017.3
20260509081628 56 309 3.0 5.0 0.00 0.00 0.00 85 1017.2
20260509081125 55 278 2.0 2.0 0.00 0.00 0.00 87 1017.3
20260509080623 56 51 1.0 4.0 0.00 0.00 0.00 87 1017.5
20260509080121 56 44 0.0 1.0 0.00 0.00 0.00 86 1017.5
20260509075619 56 135 1.0 2.0 0.00 0.00 0.00 86 1017.3
20260509075116 56 125 2.0 3.0 0.00 0.00 0.00 85 1017.5
20260509074613 57 38 1.0 2.0 0.00 0.00 0.00 83 1017.4
20260509074109 57 357 0.0 1.0 0.00 0.00 0.00 85 1017.5
20260509073606 57 309 2.0 3.0 0.00 0.00 0.00 85 1017.4
20260509073102 57 115 1.0 3.0 0.00 0.00 0.00 85 1017.4
20260509072559 57 62 1.0 3.0 0.00 0.00 0.00 84 1017.3
20260509072056 57 333 1.0 3.0 0.00 0.00 0.00 84 1017.4
20260509071553 57 311 1.0 2.0 0.00 0.00 0.00 85 1017.3
20260509071050 57 353 0.0 2.0 0.00 0.00 0.00 86 1017.3
20260509070547 57 104 0.0 2.0 0.00 0.00 0.00 86 1017.2
20260509070038 58 73 3.0 4.0 0.00 0.00 0.00 84 1017.2
20260509065533 57 276 1.0 2.0 0.00 0.00 0.00 83 1017.3
20260509065030 58 315 1.0 2.0 0.00 0.00 0.00 84 1017.3
20260509064527 58 115 1.0 2.0 0.00 0.00 0.00 83 1017.3
20260509064025 59 321 0.0 3.0 0.00 0.00 0.00 80 1017.3
20260509063520 59 204 1.0 2.0 0.00 0.00 0.00 81 1017.1
20260509063018 60 30 2.0 3.0 0.00 0.00 0.00 80 1017.2
20260509062515 59 286 1.0 4.0 0.00 0.00 0.00 82 1017.2
20260509062012 59 227 2.0 3.0 0.00 0.00 0.00 84 1017.1
20260509061509 59 69 0.0 3.0 0.00 0.00 0.00 83 1017.3
20260509061007 59 240 0.0 3.0 0.00 0.00 0.00 83 1017.1
20260509060504 59 302 3.0 4.0 0.00 0.00 0.00 83 1017.1
20260509055959 59 57 1.0 3.0 0.00 0.00 0.00 84 1016.9
20260509055455 60 49 3.0 3.0 0.00 0.00 0.00 82 1017.0
20260509054951 60 291 2.0 4.0 0.00 0.00 0.00 81 1017.1
20260509054448 60 271 3.0 4.0 0.00 0.00 0.00 84 1017.0
20260509053946 60 280 0.0 2.0 0.00 0.00 0.00 85 1017.1
20260509053444 60 59 2.0 3.0 0.00 0.00 0.00 83 1016.9
20260509052941 61 41 4.0 4.0 0.00 0.00 0.00 81 1017.0
20260509052439 61 269 3.0 5.0 0.00 0.00 0.00 82 1017.2
20260509051936 60 287 3.0 4.0 0.00 0.00 0.00 84 1016.9
20260509051434 62 111 2.0 3.0 0.00 0.00 0.00 81 1016.9
20260509050931 62 60 2.0 3.0 0.00 0.00 0.00 79 1016.9
20260509050427 62 280 2.0 2.0 0.00 0.00 0.00 80 1016.7
20260509045924 62 296 0.0 3.0 0.00 0.00 0.00 80 1016.8
20260509045421 62 309 1.0 3.0 0.00 0.00 0.00 80 1016.8
20260509044918 62 297 0.0 1.0 0.00 0.00 0.00 80 1016.8
20260509044416 63 273 2.0 3.0 0.00 0.00 0.00 79 1016.7
20260509043913 63 322 0.0 1.0 0.00 0.00 0.00 78 1016.7
20260509043408 63 273 2.0 3.0 0.00 0.00 0.00 78 1016.5
20260509042904 64 309 0.0 0.0 0.00 0.00 0.00 77 1016.3
20260509042402 64 297 0.0 3.0 0.00 0.00 0.00 76 1016.3
20260509041858 65 297 1.0 3.0 0.00 0.00 0.00 75 1016.3
20260509041354 65 266 1.0 3.0 0.00 0.00 0.00 74 1016.3
20260509040853 65 287 2.0 3.0 0.00 0.00 0.00 75 1016.1
20260509040351 65 294 1.0 2.0 0.00 0.00 0.00 75 1016.1
20260509035847 65 261 1.0 3.0 0.00 0.00 0.00 74 1015.9
20260509035344 66 327 2.0 3.0 0.00 0.00 0.00 73 1016.0
20260509034840 66 286 2.0 3.0 0.00 0.00 0.00 72 1016.0
20260509034338 66 293 3.0 3.0 0.00 0.00 0.00 72 1016.0
20260509033835 67 308 3.0 3.0 0.00 0.00 0.00 71 1015.8
20260509033332 67 254 1.0 3.0 0.00 0.00 0.00 69 1015.7
20260509032829 68 267 4.0 5.0 0.00 0.00 0.00 68 1015.7
20260509032326 68 286 2.0 3.0 0.00 0.00 0.00 69 1015.7
20260509031824 68 300 3.0 5.0 0.00 0.00 0.00 67 1015.5
20260509031321 69 308 0.0 2.0 0.00 0.00 0.00 67 1015.5
20260509030819 69 320 2.0 2.0 0.00 0.00 0.00 65 1015.4
20260509030316 70 75 0.0 3.0 0.00 0.00 0.00 63 1015.5
20260509025813 70 313 2.0 7.0 0.00 0.00 0.00 65 1015.4
20260509025308 70 299 5.0 8.0 0.00 0.00 0.00 61 1015.3
20260509024804 70 272 5.0 7.0 0.00 0.00 0.00 62 1015.3
20260509024301 69 301 4.0 7.0 0.00 0.00 0.00 66 1015.2
20260509023757 70 279 3.0 8.0 0.00 0.00 0.00 62 1015.1
20260509023255 70 257 5.0 9.0 0.00 0.00 0.00 62 1015.2
20260509022751 69 266 8.0 9.0 0.00 0.00 0.00 65 1015.2
20260509022249 71 251 9.0 10.0 0.00 0.00 0.00 61 1015.1
20260509021745 71 251 5.0 10.0 0.00 0.00 0.00 61 1015.0
20260509021242 71 255 10.0 13.0 0.00 0.00 0.00 59 1014.9
20260509020740 73 259 8.0 12.0 0.00 0.00 0.00 57 1015.0
20260509020238 74 266 11.0 13.0 0.00 0.00 0.00 53 1015.1
20260509015735 73 274 11.0 13.0 0.00 0.00 0.00 54 1015.0
20260509015234 73 257 7.0 11.0 0.00 0.00 0.00 56 1015.1
20260509014729 74 268 10.0 12.0 0.00 0.00 0.00 52 1015.0
20260509014227 75 269 9.0 13.0 0.00 0.00 0.00 52 1015.0
20260509013723 75 267 7.0 11.0 0.00 0.00 0.00 52 1014.9
20260509013219 76 272 9.0 10.0 0.00 0.00 0.00 51 1014.8
20260509012716 77 255 7.0 9.0 0.00 0.00 0.00 49 1015.0
20260509012212 78 257 7.0 10.0 0.00 0.00 0.00 48 1015.1
20260509011710 77 262 4.0 8.0 0.00 0.00 0.00 52 1015.1
20260509011208 78 267 6.0 7.0 0.00 0.00 0.00 48 1014.9
20260509010705 78 256 5.0 9.0 0.00 0.00 0.00 47 1015.1
20260509010201 79 247 6.0 9.0 0.00 0.00 0.00 42 1014.9
20260509005659 80 232 2.0 9.0 0.00 0.00 0.00 46 1015.0
20260509005156 80 234 7.0 10.0 0.00 0.00 0.00 41 1014.9
20260509004651 81 258 4.0 7.0 0.00 0.00 0.00 40 1015.1
20260509004148 81 243 5.0 9.0 0.00 0.00 0.00 41 1015.2
20260509003647 81 265 4.0 7.0 0.00 0.00 0.00 43 1015.2
20260509003144 81 255 4.0 9.0 0.00 0.00 0.00 40 1015.2
20260509002641 81 214 4.0 9.0 0.00 0.00 0.00 40 1015.4
20260509002138 81 220 8.0 9.0 0.00 0.00 0.00 37 1015.3
20260509001636 81 255 5.0 10.0 0.00 0.00 0.00 40 1015.3
20260509001131 81 267 7.0 9.0 0.00 0.00 0.00 36 1015.2
20260509000630 81 226 8.0 9.0 0.00 0.00 0.00 35 1015.3
20260509000126 81 260 7.0 8.0 0.00 0.00 0.00 36 1015.2
20260508235624 81 228 7.0 9.0 0.00 0.00 0.00 36 1015.1
20260508235120 82 208 4.0 8.0 0.00 0.00 0.00 33 1015.5
20260508234617 82 253 6.0 9.0 0.00 0.00 0.00 35 1015.3
20260508234113 81 261 5.0 9.0 0.00 0.00 0.00 35 1015.5
20260508233613 82 241 4.0 7.0 0.00 0.00 0.00 35 1015.3
20260508233110 81 255 4.0 10.0 0.00 0.00 0.00 35 1015.4
20260508232607 82 227 3.0 9.0 0.00 0.00 0.00 37 1015.4
20260508232104 82 232 5.0 6.0 0.00 0.00 0.00 36 1015.5
20260508231602 81 281 2.0 11.0 0.00 0.00 0.00 36 1015.6
20260508231058 84 217 6.0 9.0 0.00 0.00 0.00 38 1015.6
20260508230555 83 169 4.0 7.0 0.00 0.00 0.00 33 1015.7
20260508230051 83 202 5.0 9.0 0.00 0.00 0.00 34 1015.6
20260508225549 83 165 3.0 7.0 0.00 0.00 0.00 34 1015.7
20260508225045 83 137 3.0 7.0 0.00 0.00 0.00 34 1015.5
20260508224544 84 233 1.0 5.0 0.00 0.00 0.00 29 1015.7
20260508224041 84 225 3.0 6.0 0.00 0.00 0.00 29 1015.8
20260508223538 84 167 2.0 5.0 0.00 0.00 0.00 30 1015.8
20260508223035 83 182 1.0 5.0 0.00 0.00 0.00 29 1015.9
20260508222533 82 265 3.0 7.0 0.00 0.00 0.00 28 1015.8
20260508222030 82 52 2.0 5.0 0.00 0.00 0.00 33 1016.0
20260508221526 83 241 2.0 5.0 0.00 0.00 0.00 27 1016.1
20260508221021 83 179 1.0 5.0 0.00 0.00 0.00 29 1016.1
20260508220518 83 157 3.0 5.0 0.00 0.00 0.00 28 1016.1
20260508220015 82 286 2.0 5.0 0.00 0.00 0.00 29 1016.2
20260508215512 82 210 2.0 6.0 0.00 0.00 0.00 27 1016.3
20260508215008 82 279 0.0 6.0 0.00 0.00 0.00 31 1016.3
20260508214506 82 136 0.0 6.0 0.00 0.00 0.00 31 1016.4
20260508214002 82 223 2.0 4.0 0.00 0.00 0.00 29 1016.3
20260508213500 81 202 3.0 7.0 0.00 0.00 0.00 30 1016.3
20260508212954 83 160 2.0 3.0 0.00 0.00 0.00 27 1016.5
20260508212452 82 204 1.0 5.0 0.00 0.00 0.00 28 1016.7
20260508211948 82 218 0.0 5.0 0.00 0.00 0.00 30 1016.5
20260508211443 81 121 2.0 5.0 0.00 0.00 0.00 34 1016.7
20260508210940 81 186 2.0 8.0 0.00 0.00 0.00 34 1016.5
20260508210437 81 188 1.0 6.0 0.00 0.00 0.00 36 1016.9
20260508205933 81 189 3.0 5.0 0.00 0.00 0.00 33 1016.8
20260508205431 80 194 1.0 6.0 0.00 0.00 0.00 31 1016.8
20260508204927 79 95 2.0 4.0 0.00 0.00 0.00 39 1016.7
20260508204424 78 95 4.0 6.0 0.00 0.00 0.00 34 1016.8
20260508203919 80 100 6.0 8.0 0.00 0.00 0.00 35 1016.8
20260508203416 79 25 0.0 3.0 0.00 0.00 0.00 33 1016.9
20260508202912 80 212 2.0 7.0 0.00 0.00 0.00 34 1017.1
20260508202410 80 154 3.0 6.0 0.00 0.00 0.00 33 1017.0
20260508201907 81 192 3.0 5.0 0.00 0.00 0.00 39 1017.1
20260508201403 80 158 2.0 3.0 0.00 0.00 0.00 35 1017.1
20260508200900 79 131 2.0 5.0 0.00 0.00 0.00 32 1016.9
20260508200357 78 241 1.0 7.0 0.00 0.00 0.00 33 1017.3
20260508195852 78 217 3.0 5.0 0.00 0.00 0.00 34 1017.3
20260508195349 78 183 4.0 7.0 0.00 0.00 0.00 39 1017.3
20260508194845 78 149 3.0 8.0 0.00 0.00 0.00 36 1017.3